Regional Weather Roundup
Issued by NWS

Home | Current Version | Previous Version | Text Only | Print | Product List | Glossary On
Versions: 1 2 3 4 5 6 7 8 9 10 11 12 13 14 15 16 17 18 19 20 21 22 23 24 25 26 27 28 29 30 31 32 33 34 35 36 37 38 39 40 41 42 43 44 45 46 47 48 49 50
000
ASUS46 KSEW 252110
RWRWA

WASHINGTON REGIONAL WEATHER ROUNDUP
NATIONAL WEATHER SERVICE SEATTLE WA
100 PM PST SAT FEB 25 2017

NOTE:"FAIR" INDICATES FEW OR NO CLOUDS BELOW 12,000 FEET WITH NO
SIGNIFICANT WEATHER AND/OR OBSTRUCTIONS TO VISIBILITY.

WAZ507-509-555>559-252200-
SEATTLE, TACOMA, EVERETT, AND VICINITY

CITY           SKY/WX    TMP DP  RH WIND       PRES   REMARKS
EVERETT        CLOUDY    40  32  73 W5        30.18F
BOEING FIELD   PTSUNNY   42  34  73 S5        30.20F
RENTON         CLOUDY    43  32  65 SE5       30.20F
SEATAC AIRPORT CLOUDY    42  31  64 S8        30.19F
JBLM-MCCHORD   PTSUNNY   44  38  78 NW9       30.19F
PUYALLUP         N/A     45  30  57 S6G13     30.18F
BREMERTON      CLOUDY    41  32  70 S5        30.22F
JBLM-FT LEWIS  MOSUNNY   45  35  68 S9        30.18F
TACOMA NARROWS MOSUNNY   41  35  79 VRB6      30.20F
$$

WAZ001-503-506-510-514-515-252200-
NORTH INTERIOR

CITY           SKY/WX    TMP DP  RH WIND       PRES   REMARKS
BELLINGHAM     PTSUNNY   41  33  73 S10       30.17F
FRIDAY HARBOR  CLOUDY    44  31  60 SW5       30.18F
EASTSOUND      PTSUNNY   43  32  65 S7        30.16F
PORT ANGELES   CLOUDY    43  32  65 N9        30.18F
EDIZ HOOK      MOCLDY    41  31  68 CALM      30.19F
PORT TOWNSEND  CLOUDY    43  37  81 SE5       30.20F
NAS WHIDBEY    CLOUDY    45  31  58 S5        30.23F
ARLINGTON      CLOUDY    41  27  56 S6        30.22F
BURLINGTON     PTSUNNY   41  32  70 SE8       30.19F
$$

WAZ020-022-039-040-504-511-512-252200-
SOUTHWEST INTERIOR

CITY           SKY/WX    TMP DP  RH WIND       PRES   REMARKS
SHELTON        PTSUNNY   46  32  58 SW16      30.16F
OLYMPIA        PTSUNNY   40  37  89 SW6       30.21F
CHEHALIS       FAIR      45  36  70 CALM      30.22F
KELSO          SUNNY     46  31  55 CALM      30.22F
VANCOUVER      SUNNY     42  34  73 SW3       30.23F
SCAPPOOSE, OR  MOSUNNY   41  37  86 SE5       30.22F
PORTLAND, OR   MOSUNNY   44  32  62 NW3       30.23F
$$

WAZ021-516-517-252200-
WASHINGTON COAST

CITY           SKY/WX    TMP DP  RH WIND       PRES   REMARKS
FORKS          CLOUDY    41  37  86 S5        30.20F
HOQUIAM        MOSUNNY   43  35  73 SW9       30.22F
ASTORIA, OR    MOSUNNY   44  34  67 N8        30.22F
$$

WAZ019-023-024-040-567>569-252200-
CASCADE MOUNTAINS AND COLUMBIA GORGE

CITY           SKY/WX    TMP DP  RH WIND       PRES   REMARKS
STAMPEDE PASS  NOT AVBL
TROUTDALE, OR  SUNNY     45  30  55 NW6       30.23F
THE DALLES, OR SUNNY     44  27  51 S5        30.17F
$$

WAZ026-027-041>044-520-521-252200-
EAST SLOPES

CITY           SKY/WX    TMP DP  RH WIND       PRES   REMARKS
OMAK           MOSUNNY   29  19  66 S9        30.05F
WENATCHEE      SUNNY     32  19  58 SE10      30.06F WCI  24
ELLENSBURG     SUNNY     31  18  58 CALM      30.06F
YAKIMA         SUNNY     39  24  55 CALM      30.11F
SUNNYSIDE ARPT CLEAR     37  26  63 CALM      30.14F
$$

WAZ028-034-035-252200-
COLUMBIA BASIN

CITY           SKY/WX    TMP DP  RH WIND       PRES   REMARKS
EPHRATA        SUNNY     33  20  58 S9        30.07F
MOSES LAKE     SUNNY     35  24  64 S10       30.09F WCI  27
PASCO          SUNNY     45  24  43 W7        30.15F
HERMISTON, OR  SUNNY     44  29  55 W5        30.14F
$$

WAZ036>038-252200-
NORTHEAST WASHINGTON

CITY           SKY/WX    TMP DP  RH WIND       PRES   REMARKS
SPOKANE GEIGER PTSUNNY   31  24  75 SW16      30.02F WCI  20
SPOKANE FELTS  PTSUNNY   33  23  66 SW8       30.04F
FAIRCHILD AFB  MIX PCPN  32  25  74 SW15      30.00F WCI  22
COEURDALENE,ID MOSUNNY   33  24  69 W10       30.02F WCI  25
DEER PARK      SUNNY     26  21  81 CALM      30.03F
$$

WAZ029>033-252200-
SOUTHEAST WASHINGTON

CITY           SKY/WX    TMP DP  RH WIND       PRES   REMARKS
PULLMAN        MOSUNNY   32  23  69 W13       30.06F WCI  22
LEWISTON, ID   CLOUDY    38  21  50 CALM      30.09F
WALLA WALLA    SUNNY     41  25  53 SW8       30.12F
PENDLETON, OR  SUNNY     40  27  59 NW10      30.11F
$$



USA.gov is the U.S. government's official web portal to all federal, state and local government web resources and services.